CAPE
0 0 0 0 0 0 0 0 0 0 0 0 0 0 0 0 0 0 0 0 0 120 563 882 1265 1112 1115 992 954 901 915 885 797 705 451 457 364 295 185 334 432 294 63 9 1 0 1 0 0
0 0 0 0 0 0 0 0 0 0 0 0 0 0 0 0 0 0 0 0 0 8 395 847 1261 1078 1027 918 930 923 901 809 843 685 428 272 120 52 57 14 27 64 4 2 1 0 0 0 0
0 0 0 0 0 0 0 0 0 0 0 0 0 0 0 0 0 0 0 0 0 0 311 615 1128 1241 1035 960 903 655 764 923 877 766 458 227 24 5 0 0 0 0 0 2 0 0 0 0 0
0 0 0 0 0 0 0 0 0 0 0 0 0 0 0 0 0 0 0 0 0 0 202 656 888 1220 1222 1084 931 661 464 914 900 748 342 117 3 2 1 1 0 0 0 0 0 0 0 0 0
0 0 0 0 0 0 0 0 0 0 0 0 0 0 0 0 0 0 0 0 0 5 31 332 630 933 1077 1110 985 766 593 824 830 649 302 23 13 2 1 0 3 1 0 0 0 0 0 0 0
0 0 0 0 0 0 0 0 0 0 0 0 0 0 0 0 0 0 0 0 7 7 37 61 267 611 785 895 969 759 586 718 707 440 69 6 4 2 3 0 3 0 0 0 0 0 0 0 0
0 0 0 0 0 0 0 0 0 0 0 0 0 0 0 0 0 0 0 0 0 22 83 135 239 406 502 616 671 632 572 698 451 61 0 4 4 1 2 0 0 0 0 0 0 0 0 0 0
0 0 0 0 0 0 0 0 0 0 0 0 0 0 0 0 0 0 0 0 1 26 90 119 164 323 450 585 491 471 467 402 81 0 0 1 1 0 0 0 0 0 0 0 0 0 0 0 0
0 0 0 0 0 0 0 0 0 0 0 0 0 0 0 0 0 0 0 0 0 9 78 82 112 105 187 303 448 254 231 56 0 0 0 0 1 1 0 0 0 0 0 0 0 0 0 0 0
0 0 0 0 0 0 0 0 0 0 0 0 0 0 0 0 0 0 0 0 0 0 21 57 76 80 59 76 206 317 225 75 16 0 0 1 2 0 0 0 0 0 0 0 0 0 0 0 0
0 0 0 0 0 0 0 0 0 0 0 0 0 0 0 0 0 0 0 0 0 0 0 0 26 28 2 24 1 11 14 6 22 2 2 1 4 0 0 0 0 0 0 0 0 0 0 0 0
0 0 0 0 0 0 0 0 0 0 0 0 0 0 0 0 0 0 0 0 0 0 0 0 0 0 0 0 0 0 0 5 10 4 4 6 1 0 0 0 0 0 0 0 0 0 0 0 0
0 0 0 0 0 0 0 0 0 0 0 0 0 0 0 0 0 0 0 0 0 0 0 0 0 0 0 0 0 0 0 0 0 2 3 2 0 0 0 0 0 0 0 0 0 0 0 0 0
0 0 0 0 0 0 0 0 0 0 0 0 0 0 0 0 0 0 0 0 0 0 0 0 0 0 0 0 0 0 0 0 0 0 3 2 0 0 0 0 0 0 0 0 0 0 0 0 0
0 0 0 0 0 0 0 0 0 0 0 0 0 0 0 0 0 0 0 0 0 0 0 0 0 0 0 0 0 0 0 0 0 0 1 0 0 0 0 0 0 0 0 0 0 0 0 0 0
0 0 0 0 0 0 0 0 0 0 0 0 0 0 0 0 0 0 0 0 0 0 0 0 0 0 0 0 0 0 0 0 0 0 0 0 0 0 0 0 0 0 0 0 0 0 0 0 0
0 0 0 0 0 0 0 0 0 0 0 0 0 0 0 0 0 0 0 0 0 0 0 0 0 0 0 0 0 0 0 0 0 0 0 0 0 0 0 0 0 0 0 0 0 0 0 0 0
0 0 0 0 0 0 0 0 0 0 0 0 0 0 0 0 0 0 0 0 0 0 0 0 0 0 0 0 0 0 0 0 0 0 0 0 0 0 0 0 0 0 0 0 0 0 0 0 0
0 0 0 0 0 0 0 0 0 0 0 0 0 0 0 0 0 0 0 0 0 0 0 0 0 0 0 0 0 0 0 0 0 0 0 0 0 0 0 0 0 0 0 0 0 0 0 0 0
0 0 0 0 0 0 0 0 0 0 0 0 0 0 0 0 0 0 0 0 0 0 0 0 0 0 0 0 0 0 0 0 0 0 0 0 0 0 0 0 0 0 0 0 0 0 0 0 0
0 0 0 0 0 0 0 0 0 0 0 0 0 0 0 0 0 0 0 0 0 0 0 0 0 0 0 0 0 0 0 0 0 0 0 0 0 0 0 0 0 0 0 0 0 0 0 0 0
0 0 0 0 0 0 0 0 0 0 0 0 0 0 0 0 0 0 0 0 0 0 0 0 0 0 0 0 0 0 0 0 0 0 0 0 0 0 0 0 0 0 0 0 0 0 0 0 0
0 0 0 0 0 0 0 0 0 0 0 0 0 0 0 0 0 0 0 0 0 0 0 0 0 0 0 0 0 0 0 0 0 0 0 0 0 0 0 0 0 0 0 0 0 0 0 0 0
0 0 0 0 0 0 0 0 0 0 0 0 0 0 0 0 0 0 0 0 0 0 0 0 0 0 0 0 0 0 0 0 0 0 0 0 0 0 0 0 0 0 0 0 0 0 0 0 0
0 0 0 0 0 0 0 0 0 0 0 0 0 0 0 0 0 0 0 0 0 0 0 0 0 0 0 0 0 0 0 0 0 0 0 0 0 0 0 0 0 0 0 0 0 0 0 0 0
0 0 0 0 0 1 0 0 0 0 0 0 0 0 0 0 0 0 0 0 0 0 0 0 0 0 0 0 0 0 0 0 0 0 0 0 0 0 0 0 0 0 0 0 0 0 0 0 0
0 0 0 0 0 0 0 0 0 0 0 0 0 0 0 0 0 0 0 0 0 0 0 0 0 0 0 0 0 0 0 0 0 0 0 0 0 0 0 0 0 0 0 0 0 0 0 0 0
0 0 0 0 1 0 0 0 0 0 0 0 0 0 0 0 0 0 0 0 0 0 0 0 0 0 0 0 0 0 0 0 0 0 0 0 0 0 0 0 0 0 0 0 0 0 0 0 0
0 0 0 0 5 8 0 0 0 0 0 0 0 0 0 0 0 0 0 0 0 0 0 0 0 0 0 0 0 0 0 0 0 0 0 0 0 0 0 0 0 0 0 0 0 0 0 0 0
0 4 10 13 1 1 5 1 0 0 0 0 0 0 0 0 0 0 0 0 0 0 0 0 0 0 0 0 0 0 0 0 0 0 0 0 0 0 0 0 0 0 0 0 0 0 0 0 0
CIN
0 0 0 0 0 0 0 0 0 0 0 0 0 0 0 0 0 0 0 0 0 -311 -203 -164 -65 -61 -44 -47 -38 -28 -14 -16 -14 -23 -50 -35 -37 -42 -62 -19 -9 -20 -88 -149 0 0 0 0 0
0 0 0 0 0 0 0 0 0 0 0 0 0 0 0 0 0 0 0 0 0 -317 -244 -154 -75 -76 -56 -54 -42 -32 -18 -19 -12 -26 -54 -84 -152 -176 -156 -162 -147 -123 -102 0 0 0 0 0 0
0 0 0 0 0 0 0 0 0 0 0 0 0 0 0 0 0 0 0 0 0 0 -272 -190 -81 -50 -57 -48 -44 -80 -43 -9 -8 -14 -68 -153 -279 -78 -0 0 0 -0 0 0 0 0 0 0 0
0 0 0 0 0 0 0 0 0 0 0 0 0 0 0 0 0 0 0 0 0 0 -319 -200 -133 -37 -26 -25 -34 -86 -128 -8 -10 -32 -130 -245 -1 -1 -1 0 0 0 0 0 0 0 0 0 0
0 0 0 0 0 0 0 0 0 0 0 0 0 0 0 0 0 0 0 0 0 -225 -428 -301 -207 -101 -43 -27 -28 -54 -94 -24 -21 -55 -152 -347 -193 -0 0 0 0 -0 0 0 0 0 0 0 0
0 0 0 0 0 0 0 0 0 0 0 0 0 0 0 0 0 0 0 0 -530 -384 -489 -441 -340 -188 -117 -66 -40 -61 -87 -44 -39 -112 -312 -1 -1 -0 -0 0 0 0 0 0 0 0 0 0 0
0 0 0 0 0 0 0 0 0 0 0 0 0 0 0 0 0 0 0 0 -24 -491 -479 -423 -350 -258 -195 -145 -111 -102 -99 -52 -100 -306 -6 -1 -2 -1 -0 0 0 0 0 0 0 0 0 0 0
0 0 0 0 0 0 0 0 0 0 0 0 0 0 0 0 0 0 0 0 -113 -508 -482 -468 -394 -289 -217 -150 -165 -155 -145 -154 -278 0 0 -1 -3 0 0 0 0 0 0 0 0 0 0 0 0
0 0 0 0 0 0 0 0 0 0 0 0 0 0 0 0 0 0 0 0 0 -507 -509 -504 -447 -413 -328 -259 -195 -249 -230 -315 0 0 0 -0 -0 -0 0 0 0 0 0 0 0 0 0 0 0
0 0 0 0 0 0 0 0 0 0 0 0 0 0 0 0 0 0 0 0 0 0 -510 -538 -484 -447 -443 -397 -297 -234 -265 -331 -324 0 0 -2 -0 0 0 0 0 0 0 0 0 0 0 0 0
0 0 0 0 0 0 0 0 0 0 0 0 0 0 0 0 0 0 0 0 0 0 0 -94 -563 -513 -106 -489 -76 -502 -462 -417 -401 -1 -0 -3 -0 0 0 0 0 0 0 0 0 0 0 0 0
0 0 0 0 0 0 0 0 0 0 0 0 0 0 0 0 0 0 0 0 0 0 0 0 0 0 0 0 0 0 0 0 -143 -0 -1 -1 0 0 0 0 0 0 0 0 0 0 0 0 0
0 0 0 0 0 0 0 0 0 0 0 0 0 0 0 0 0 0 0 0 0 0 0 0 0 0 0 0 0 0 0 0 0 -0 -1 -0 0 0 0 0 0 0 0 0 0 0 0 0 0
0 0 0 0 0 0 0 0 0 0 0 0 0 0 0 0 0 0 0 0 0 0 0 0 0 0 0 0 0 0 0 0 0 0 0 0 0 0 0 0 0 0 0 0 0 0 0 0 0
0 0 0 0 0 0 0 0 0 0 0 0 0 0 0 0 0 0 0 0 0 0 0 0 0 0 0 0 0 0 0 0 0 0 0 0 0 0 0 0 0 0 0 0 0 0 0 0 0
0 0 0 0 0 0 0 0 0 0 0 0 0 0 0 0 0 0 0 0 0 0 0 0 0 0 0 0 0 0 0 0 0 0 0 0 0 0 0 0 0 0 0 0 0 0 0 0 0
0 0 0 0 0 0 0 0 0 0 0 0 0 0 0 0 0 0 0 0 0 0 0 0 0 0 0 0 0 0 0 0 0 0 0 0 0 0 0 0 0 0 0 0 0 0 0 0 0
0 0 0 0 0 0 0 0 0 0 0 0 0 0 0 0 0 0 0 0 0 0 0 0 0 0 0 0 0 0 0 0 0 0 0 0 0 0 0 0 0 0 0 0 0 0 0 0 0
0 0 0 0 0 0 0 0 0 0 0 0 0 0 0 0 0 0 0 0 0 0 0 0 0 0 0 0 0 0 0 0 0 0 0 0 0 0 0 0 0 0 0 0 0 0 0 0 0
0 0 0 0 0 0 0 0 0 0 0 0 0 0 0 0 0 0 0 0 0 0 0 0 0 0 0 0 0 0 0 0 0 0 0 0 0 0 0 0 0 0 0 0 0 0 0 0 0
0 0 0 0 0 0 0 0 0 0 0 0 0 0 0 0 0 0 0 0 0 0 0 0 0 0 0 0 0 0 0 0 0 0 0 0 0 0 0 0 0 0 0 0 0 0 0 0 0
0 0 0 0 0 0 0 0 0 0 0 0 0 0 0 0 0 0 0 0 0 0 0 0 0 0 0 0 0 0 0 0 0 0 0 0 0 0 0 0 0 0 0 0 0 0 0 0 0
0 0 0 0 0 0 0 0 0 0 0 0 0 0 0 0 0 0 0 0 0 0 0 0 0 0 0 0 0 0 0 0 0 0 0 0 0 0 0 0 0 0 0 0 0 0 0 0 0
0 0 0 0 0 0 0 0 0 0 0 0 0 0 0 0 0 0 0 0 0 0 0 0 0 0 0 0 0 0 0 0 0 0 0 0 0 0 0 0 0 0 0 0 0 0 0 0 0
0 0 0 0 0 0 0 0 0 0 0 0 0 0 0 0 0 0 0 0 0 0 0 0 0 0 0 0 0 0 0 0 0 0 0 0 0 0 0 0 0 0 0 0 0 0 0 0 0
0 0 0 0 -1 -1 0 0 0 0 0 0 0 0 0 0 0 0 0 0 0 0 0 0 0 0 0 0 0 0 0 0 0 0 0 0 0 0 0 0 0 0 0 0 0 0 0 0 0
0 0 0 0 0 0 0 0 0 0 0 0 0 0 0 0 0 0 0 0 0 0 0 0 0 0 0 0 0 0 0 0 0 0 0 0 0 0 0 0 0 0 0 0 0 0 0 0 0
0 0 0 0 -3 0 0 0 0 0 0 0 0 0 0 0 0 0 0 0 0 0 0 0 0 0 0 0 0 0 0 0 0 0 0 0 0 0 0 0 0 0 0 0 0 0 0 0 0
0 0 0 0 -7 -0 -0 0 0 0 0 0 0 0 0 0 0 0 0 0 0 0 0 0 0 0 0 0 0 0 0 0 0 0 0 0 0 0 0 0 0 0 0 0 0 0 0 0 0
-0 -1 -1 -1 -4 -9 -1 -0 0 0 0 0 0 0 0 0 0 0 0 0 0 0 0 0 0 0 0 0 0 0 0 0 0 0 0 0 0 0 0 0 0 0 0 0 0 0 0 0 0
Wind_Speed
13 12 11 11 13 15 13 17 14 14 15 15 12 11 9 8 10 18 14 12 12 12 14 17 17 17 18 18 17 14 10 7 6 6 8 10 10 12 12 12 11 12 13 13 14 14 15 15 15
12 12 12 12 14 14 20 18 16 17 15 12 11 10 10 10 12 11 12 11 10 11 11 14 14 14 14 14 15 13 11 8 6 6 7 8 12 14 15 14 14 13 13 14 15 15 15 15 16
12 12 13 14 15 17 17 17 16 14 13 12 14 13 11 13 12 12 15 12 10 10 9 10 10 11 11 10 10 9 10 9 7 5 6 7 12 13 15 16 16 15 15 15 15 16 16 17 17
12 13 13 13 13 15 13 14 16 14 15 14 14 11 12 10 12 15 15 11 11 11 9 6 8 6 7 7 6 7 8 6 5 4 4 9 12 13 14 15 16 16 15 15 16 15 16 16 17
13 13 12 12 13 14 14 13 15 13 15 14 14 14 14 15 14 14 13 10 10 11 11 7 9 7 3 6 6 4 4 7 6 2 4 11 10 12 16 16 15 14 14 15 15 15 15 15 16
13 14 12 13 17 17 16 16 14 14 14 15 15 11 15 14 14 13 11 9 9 9 10 11 11 11 8 5 5 4 4 5 1 1 8 9 10 12 15 16 14 14 14 14 14 14 14 15 16
16 14 14 16 17 17 15 15 13 16 15 15 16 15 17 14 14 14 11 8 6 6 7 8 9 12 11 11 9 6 4 3 3 6 9 13 13 14 15 15 14 14 14 13 13 13 14 15 16
16 16 16 16 16 16 13 14 15 15 19 19 18 16 15 16 15 15 13 9 5 3 5 6 6 8 9 9 9 9 8 6 3 6 9 10 13 14 15 15 15 14 12 12 12 13 14 14 15
15 15 16 15 16 18 14 17 15 18 17 17 15 12 25 20 18 16 14 11 7 3 1 4 5 6 8 8 6 6 6 5 3 5 5 6 11 12 12 13 13 12 11 11 12 12 13 14 16
13 13 18 17 17 17 20 19 20 17 17 18 12 7 6 13 15 15 14 13 9 6 4 3 4 4 5 5 5 7 4 5 5 4 6 5 3 7 8 9 10 11 11 11 12 13 14 15 16
15 14 18 20 19 19 21 24 19 9 9 16 15 21 20 21 13 12 14 14 13 8 7 6 5 5 6 6 5 5 6 6 6 6 5 5 5 7 8 9 8 7 8 10 11 13 14 16 17
19 17 17 20 23 22 21 25 20 8 13 25 18 20 31 17 9 8 9 13 14 13 9 7 7 7 8 8 8 8 7 8 8 7 7 6 7 8 8 8 6 7 8 9 10 13 15 15 16
16 22 20 24 23 23 26 17 18 17 27 18 17 15 13 11 10 10 12 14 13 10 9 8 8 9 9 10 11 12 11 10 10 9 8 8 8 8 8 8 8 8 8 10 11 12 13 14 15
29 29 27 23 25 25 25 19 25 17 24 25 25 22 16 12 14 19 17 20 16 13 12 10 9 10 10 10 11 14 14 13 12 12 11 11 11 11 11 11 10 10 10 11 11 12 12 13 14
28 35 39 37 27 24 26 29 23 24 24 24 25 25 29 26 27 28 29 30 24 17 15 13 12 11 11 11 11 13 15 15 15 15 14 13 14 13 13 13 13 13 13 12 13 13 13 14 15
32 32 35 33 28 26 22 32 34 30 32 29 28 34 35 39 38 34 38 31 25 22 20 17 15 14 14 14 14 14 15 15 16 16 16 16 16 15 14 15 15 15 15 14 14 14 15 15 15
27 32 37 39 34 29 23 35 33 43 41 39 36 43 42 39 36 34 32 31 28 24 22 21 21 20 20 20 20 19 18 18 19 19 19 18 17 18 17 17 16 15 16 16 16 16 16 17 17
36 42 44 38 36 38 37 37 44 43 48 39 37 40 39 35 30 28 27 26 25 24 25 25 23 22 22 22 21 23 23 24 23 24 24 23 21 20 20 19 18 17 18 18 18 19 18 17 17
38 41 48 43 41 45 50 55 48 42 36 42 37 33 24 22 22 21 23 23 22 21 22 22 22 20 21 21 22 22 24 25 26 26 26 25 23 22 21 21 20 20 21 22 20 20 20 20 17
37 43 48 45 41 43 48 53 52 42 32 28 28 28 19 15 17 19 21 22 24 23 22 21 21 20 19 19 20 22 24 25 26 27 29 27 25 24 23 24 24 23 24 23 22 21 22 21 16
39 43 49 52 46 44 46 48 33 28 36 26 26 18 14 16 16 17 20 22 23 24 24 22 23 22 22 22 22 23 24 25 27 26 28 29 29 27 26 27 26 26 25 26 25 24 23 25 22
43 38 40 42 43 43 36 48 47 41 32 23 16 19 17 15 15 16 18 21 23 24 25 24 24 23 24 25 25 25 26 28 29 28 26 27 27 28 28 28 28 28 27 27 26 26 27 26 27
38 34 38 39 41 46 41 41 39 36 26 18 17 18 17 16 16 16 18 21 22 24 25 25 26 28 27 27 26 26 27 28 30 30 27 27 27 27 30 29 30 31 30 29 29 28 28 28 29
33 37 38 39 39 45 42 35 35 27 17 17 15 15 16 17 19 19 19 22 24 24 25 27 28 29 31 29 28 28 29 30 31 31 32 31 29 28 29 30 30 31 32 32 31 31 32 32 32
29 36 46 45 39 44 30 37 34 31 22 18 17 17 18 19 20 22 24 25 25 25 27 28 31 32 31 31 30 31 32 32 32 32 32 32 32 31 31 30 30 32 33 34 34 35 35 35 36
29 30 36 49 51 54 46 46 40 26 22 21 20 20 20 22 22 24 25 25 27 29 30 31 33 33 33 34 34 34 34 34 33 34 33 34 34 34 33 33 33 33 33 34 35 37 38 38 38
29 33 29 37 40 47 44 44 41 29 27 24 24 24 25 25 27 28 28 29 30 31 33 34 34 33 34 36 35 36 36 36 36 35 36 36 36 36 37 37 36 35 36 36 36 38 40 40 40
29 28 36 36 51 58 55 58 52 38 33 27 28 29 29 28 28 29 30 31 31 31 33 34 34 34 36 36 36 37 39 38 37 37 37 37 37 38 39 39 38 37 37 37 39 40 40 42 43
35 40 38 42 44 56 61 56 43 33 26 30 32 32 32 34 35 34 34 35 34 34 35 36 37 36 38 40 40 39 39 39 40 40 40 41 40 39 39 39 40 41 40 40 41 41 41 41 43
39 40 39 48 51 46 52 57 34 38 35 37 40 39 36 36 36 37 38 36 37 38 38 39 39 40 40 41 40 40 40 39 40 41 41 42 43 43 42 41 41 42 43 42 44 45 43 44 44
Wind_Direction
191 193 189 157 118 97 93 73 93 81 83 78 95 101 124 151 186 306 30 53 25 100 115 132 134 132 133 130 128 120 107 79 54 22 343 321 315 305 311 314 324 327 318 319 321 320 313 310 315
174 174 146 137 89 78 48 58 61 57 60 79 89 95 95 108 92 87 72 68 55 94 109 131 133 133 131 128 128 119 111 96 69 49 39 360 314 297 292 300 306 311 315 313 316 318 317 313 309
154 139 100 72 62 44 41 48 46 50 53 63 59 69 83 68 77 73 35 79 74 96 107 124 133 135 135 131 125 120 120 116 97 65 37 8 326 315 305 298 299 302 306 314 315 311 309 307 307
104 74 68 57 43 30 42 33 27 37 35 46 39 51 52 84 61 25 26 74 98 104 111 104 137 137 139 138 136 135 132 120 108 86 35 337 319 314 308 307 301 303 310 311 315 320 318 314 311
70 44 39 33 26 26 22 22 17 22 20 25 28 31 23 25 35 34 39 70 100 114 124 107 139 152 164 155 152 150 145 145 138 69 352 319 321 315 302 300 305 312 313 312 316 320 323 326 324
28 18 19 12 4 3 8 14 18 18 13 12 13 18 9 16 24 33 46 74 94 116 128 136 145 153 160 177 174 177 171 163 227 296 318 319 318 310 303 302 310 313 313 315 322 324 328 327 324
360 0 356 351 351 356 2 11 16 5 2 2 355 3 354 1 8 9 21 44 74 104 119 132 138 156 161 167 175 184 198 221 234 291 303 304 305 305 304 304 309 311 312 317 319 324 326 326 326
354 352 347 350 354 349 3 3 357 355 344 345 345 359 358 349 353 352 355 5 26 85 125 139 138 149 158 162 169 173 176 181 223 284 297 303 302 301 300 300 302 307 313 316 320 322 323 323 321
351 343 340 341 344 349 354 347 353 345 338 338 341 340 328 336 340 341 340 341 337 337 165 160 160 160 162 165 169 173 177 183 228 276 287 299 303 303 301 301 303 305 308 312 316 319 322 324 323
340 331 334 338 337 334 335 335 334 336 334 330 327 304 324 336 334 329 328 327 322 305 276 242 217 201 192 186 182 187 208 220 226 256 282 282 271 305 305 304 302 302 306 309 312 315 316 317 321
335 322 329 331 329 329 326 325 327 307 287 327 331 329 329 324 323 318 317 313 313 310 299 263 251 240 234 231 250 263 236 245 238 240 258 264 276 296 300 306 302 305 305 309 309 310 311 312 315
318 320 322 322 325 325 322 323 322 274 268 320 318 320 311 318 273 291 302 311 309 305 294 278 252 248 239 252 258 264 259 248 249 253 242 252 268 285 290 294 292 295 300 305 309 310 311 313 315
309 318 319 321 320 317 318 305 306 261 315 307 312 312 307 300 277 297 308 310 305 291 282 266 257 246 250 248 269 270 269 260 265 267 250 251 264 272 275 279 284 287 295 298 303 308 311 314 316
315 315 316 315 314 315 314 308 319 279 316 321 322 323 320 308 309 313 310 308 306 293 279 273 257 256 252 244 251 271 272 272 264 269 257 249 267 272 274 278 279 283 286 292 297 301 306 310 314
314 310 309 310 312 313 319 316 317 323 323 320 322 323 318 317 311 303 301 300 301 297 292 280 270 263 253 254 253 262 271 271 272 270 263 262 263 269 273 276 277 279 283 286 291 295 301 304 308
312 310 309 314 322 323 320 313 315 322 320 318 317 314 312 302 299 301 295 299 300 298 293 286 281 271 266 264 267 270 272 272 272 272 273 267 263 267 270 273 274 276 278 280 283 286 291 296 300
308 306 308 310 312 318 314 312 316 306 310 310 312 305 303 305 305 304 304 303 302 300 296 291 287 282 279 277 277 277 276 276 277 277 275 271 266 264 270 272 273 272 275 275 276 279 282 287 293
308 304 304 307 311 306 307 307 310 310 302 310 311 306 303 305 311 318 318 316 313 308 300 296 295 291 288 285 281 281 280 279 279 279 277 275 271 267 266 272 273 271 274 275 276 278 280 283 287
303 304 300 305 309 306 300 296 305 314 314 304 308 315 319 320 328 337 339 341 341 332 319 311 305 302 298 293 288 284 281 281 280 279 278 276 273 268 266 270 269 269 272 273 273 276 276 280 284
303 301 300 305 309 308 306 301 305 308 318 319 318 317 321 334 335 338 343 347 348 345 341 335 323 315 312 306 303 298 295 290 288 285 280 275 272 270 267 268 269 268 271 270 269 269 274 279 271
299 299 300 299 307 308 306 304 312 319 319 324 328 334 340 331 333 335 336 341 347 348 345 340 341 332 323 318 311 306 302 301 297 294 288 281 276 273 269 267 268 267 267 269 268 266 266 270 270
298 305 305 305 307 305 315 304 304 308 313 325 341 339 339 339 340 339 339 340 342 341 341 344 345 342 336 323 316 311 305 302 302 300 299 292 285 279 276 270 266 266 266 266 265 264 265 268 270
303 309 305 305 304 303 304 303 311 310 305 317 332 339 344 351 359 356 344 340 340 338 338 338 338 337 333 332 325 319 316 312 307 305 303 298 294 288 283 278 274 270 268 264 263 261 259 263 267
308 307 305 303 304 299 304 299 310 320 318 321 329 340 343 342 342 346 344 344 337 336 335 336 337 339 339 336 331 324 317 314 312 307 304 301 298 294 289 284 279 276 273 269 266 264 262 262 265
305 305 301 298 296 299 312 306 299 310 316 312 316 323 326 330 331 332 334 334 331 323 325 330 332 336 338 337 335 330 322 318 315 312 309 304 300 297 294 290 284 280 277 274 272 269 266 263 264
304 304 298 296 295 293 300 294 299 304 309 309 309 313 317 319 322 324 326 326 325 314 320 324 328 329 330 328 328 328 327 324 319 314 311 308 305 301 298 294 289 284 281 277 275 271 269 267 265
308 301 304 298 298 295 295 295 300 299 299 301 303 308 311 313 314 316 317 321 321 319 322 326 327 325 323 323 323 322 322 323 321 319 315 311 306 303 301 297 294 290 286 281 277 274 271 267 266
302 309 300 300 294 290 290 293 294 295 292 296 299 303 309 314 318 321 321 321 325 325 325 326 325 324 319 319 321 320 323 322 321 320 319 317 314 308 303 299 296 293 289 286 280 276 274 270 268
300 296 296 297 290 290 291 290 302 305 301 298 299 303 307 310 313 314 315 316 318 318 319 320 320 319 318 320 320 321 320 318 318 317 316 315 315 312 307 303 298 294 290 288 283 279 276 272 269
299 297 296 292 294 291 289 287 296 309 303 301 298 299 305 308 310 311 313 314 315 315 316 318 317 318 319 319 319 318 318 318 317 315 314 314 311 311 310 307 301 296 291 289 285 281 278 274 271